EW5485 Weather Reports


time (UTC)temp
C
wind
direction
speed
KPH
gust
KPH
rain 1hr
cm
rain 24hr
cm
rain mn
cm
humidity
%
barometer
mb
20260504050008 9 134 0.0 0.0 0.00 0.00 0.00 88 1029.4
20260504044504 10 134 0.0 1.6 0.00 0.00 0.00 86 1029.4
20260504043100 11 139 1.6 4.8 0.00 0.00 0.00 84 1029.4
20260504041554 11 93 0.0 1.6 0.00 0.00 0.00 83 1029.4
20260504040050 11 81 0.0 3.2 0.00 0.00 0.00 83 1029.4
20260504034605 11 143 0.0 1.6 0.00 0.00 0.00 86 1029.6
20260504033042 10 136 0.0 4.8 0.00 0.00 0.00 86 1029.6
20260504031537 10 162 0.0 4.8 0.00 0.00 0.00 87 1029.6
20260504030039 10 184 0.0 1.6 0.00 0.00 0.00 86 1029.7
20260504024527 10 195 0.0 1.6 0.00 0.00 0.00 88 1029.7
20260504023022 10 327 0.0 4.8 0.00 0.00 0.00 88 1029.8
20260504021518 10 119 0.0 3.2 0.00 0.00 0.00 89 1029.9
20260504020018 9 165 1.6 4.8 0.00 0.00 0.00 90 1030.1
20260504014509 9 133 0.0 0.0 0.00 0.00 0.00 91 1030.3
20260504013004 8 132 0.0 0.0 0.00 0.00 0.00 92 1030.5
20260504011606 8 272 0.0 0.0 0.00 0.00 0.00 93 1030.6
20260504010100 8 148 0.0 0.0 0.00 0.00 0.00 94 1030.9
20260504004552 8 283 0.0 6.4 0.00 0.00 0.00 95 1031.2
20260504003051 7 304 0.0 0.0 0.00 0.00 0.00 95 1031.5
20260504001543 7 291 0.0 3.2 0.00 0.00 0.00 96 1031.7
20260504000038 7 275 0.0 4.8 0.00 0.00 0.00 96 1032.0
20260503234544 7 171 0.0 8.0 0.00 0.00 0.00 96 1032.0
20260503233031 7 131 0.0 0.0 0.00 0.00 0.00 97 1032.1
20260503231527 6 132 0.0 8.0 0.00 0.00 0.00 96 1032.2
20260503230023 6 188 0.0 0.0 0.00 0.00 0.00 97 1032.2
20260503224515 6 133 0.0 4.8 0.00 0.00 0.00 96 1032.0
20260503223011 6 316 0.0 4.8 0.00 0.00 0.00 96 1032.2
20260503221506 6 126 0.0 0.0 0.00 0.00 0.00 97 1032.1
20260503220005 5 260 0.0 0.0 0.00 0.00 0.00 97 1032.2
20260503214557 4 339 0.0 0.0 0.00 0.00 0.00 97 1032.1
20260503213101 3 298 0.0 4.8 0.00 0.00 0.00 97 1032.1
20260503211548 3 285 0.0 0.0 0.00 0.00 0.00 97 1032.0
20260503210046 2 296 0.0 0.0 0.00 0.00 0.00 97 1031.9
20260503204539 2 303 0.0 0.0 0.00 0.00 0.00 97 1031.9
20260503203034 2 300 0.0 0.0 0.00 0.00 0.00 97 1031.7
20260503201530 -17 0.0 0.0 0.00 0.00 0.00 1031.5
20260503200025 -17 0.0 0.0 0.00 0.00 0.00 1031.4
20260503194523 -17 0.0 0.0 0.00 0.00 0.00 1031.2
20260503193017 -17 0.0 0.0 0.00 0.00 0.00 1031.1
20260503191519 -17 0.0 0.0 0.00 0.00 0.00 1031.1
20260503190008 -17 0.0 0.0 0.00 0.00 0.00 1031.1
20260503184503 -17 0.0 0.0 0.00 0.00 0.00 1031.0
20260503183110 -17 0.0 0.0 0.00 0.00 0.00 1031.0
20260503181608 -17 0.0 0.0 0.00 0.00 0.00 1031.0
20260503180049 -17 0.0 0.0 0.00 0.00 0.00 1030.9
20260503174545 -17 0.0 0.0 0.00 0.00 0.00 1030.8
20260503173045 -17 0.0 0.0 0.00 0.00 0.00 1030.8
20260503171536 -17 0.0 0.0 0.00 0.00 0.00 1030.9
20260503081535 6 312 0.0 0.0 0.00 0.00 0.00 96 1030.7
20260503071528 6 358 0.0 0.0 0.00 0.00 0.00 94 1030.7